YAOGAN-28

Last updated on Mon Oct 27 2025 00:02:30 GMT+0000 (Coordinated Universal Time)

1 41026U 15064A 25299.55592434 .00009792 00000+0 41129-3 0 9999 2 41026 97.2775 78.7279 0010191 290.5437 69.4707 15.23596501555065
UTC large
Height (km)
Speed (km/s)
/
Latitude / Longitude
Inclination (degrees)
Orbital Period (minutes)
Azimuth
Elevation
Range (km)
Doppler Factor

Next 0 passes for location: London (51.5072 / 0.1276)

Sorry there are no passes over London.